Bergman, AR

11:21 AM CDT on August 27, 2016 (GMT -0500)
Boone County

Weather History for KHRO - September, 2012

Change the Weather History Date:

Wednesday, September 19, 2012

  Actual Average Record
Temperature  
Mean Temperature 62 °F 68 °F  
Max Temperature 78 °F 79 °F 100 °F (1954)
Min Temperature 46 °F 56 °F 35 °F (1901)
Degree Days  
Heating Degree Days 3 2  
Month to date heating degree days 13 11  
Since 1 July heating degree days 13 12  
Cooling Degree Days 0 5  
Month to date cooling degree days 152 132  
Year to date cooling degree days 1871 1343  
Growing Degree Days 12 (Base 50)    
Moisture  
Dew Point 46 °F    
Average Humidity 63    
Maximum Humidity 93    
Minimum Humidity 33    
Precipitation  
Precipitation 0.00 in 0.14 in 2.72 in (1958)
Month to date precipitation 1.89 2.68  
Year to date precipitation 22.91 31.64  
Snow  
Snow 0.00 in 0.00 in - ()
Month to date snowfall 0.0 0.0  
Since 1 July snowfall 0.0 0.0  
Since 1 September snowfall 0.0 0.0  
Snow Depth 0.00 in    
Sea Level Pressure  
Sea Level Pressure 30.09 in    
Wind  
Wind Speed 7 mph (SSE)    
Max Wind Speed 16 mph    
Max Gust Speed 23 mph    
Visibility 10 miles    
Events      
T = Trace of Precipitation, MM = Missing Value Source: NWS Daily Summary

Daily Weather History Graph

Daily Weather History Graph

Search for Another Location

Airport or City:

Trip Planner

Search our weather history database for the weather conditions in past years. The results will help you decide how hot, cold, wet, or windy it might be!

Date:

Astronomy

Sep. 19, 2012 Rise Set
Actual Time 6:58 AM CDT 7:13 PM CDT
Civil Twilight 6:32 AM CDT 7:38 PM CDT
Nautical Twilight 6:02 AM CDT 8:08 PM CDT
Astronomical Twilight 5:32 AM CDT 8:39 PM CDT
Moon 11:00 AM CDT (9/19) 9:32 PM CDT (9/19)
Length of Visible Light 13h 06m
Length of Day
12h 14m
Waxing Crescent, 17% of the Moon is Illuminated
Sep 19
Waxing Crescent
Sep 22
First Quarter
Sep 29
Full
Oct 8
Last Quarter
Oct 15
New

Hourly Weather History & Observations

Time (CDT) Temp. Windchill Dew Point Humidity Pressure Visibility Wind Dir Wind Speed Gust Speed Precip Events Conditions
12:53 AM 50.0 °F - 44.1 °F 80% 30.11 in 10.0 mi WSW 3.5 mph - N/A   Clear
1:53 AM 50.0 °F - 45.0 °F 83% 30.11 in 10.0 mi SE 3.5 mph - N/A   Clear
2:53 AM 48.9 °F - 45.0 °F 86% 30.10 in 10.0 mi Calm Calm - N/A   Clear
3:53 AM 48.0 °F - 45.0 °F 89% 30.10 in 10.0 mi ESE 3.5 mph - N/A   Clear
4:53 AM 46.9 °F - 45.0 °F 93% 30.10 in 10.0 mi Calm Calm - N/A   Clear
5:53 AM 46.9 °F - 44.1 °F 90% 30.12 in 10.0 mi Calm Calm - N/A   Clear
6:53 AM 46.0 °F 44.8 °F 44.1 °F 93% 30.14 in 10.0 mi SE 3.5 mph - N/A   Clear
7:53 AM 50.0 °F - 46.0 °F 86% 30.15 in 10.0 mi SSE 4.6 mph - N/A   Clear
8:53 AM 57.0 °F - 46.9 °F 69% 30.15 in 10.0 mi SE 8.1 mph - N/A   Clear
9:53 AM 64.0 °F - 43.0 °F 46% 30.14 in 10.0 mi SSE 11.5 mph - N/A   Clear
10:53 AM 68.0 °F - 43.0 °F 40% 30.15 in 10.0 mi SSE 10.4 mph 16.1 mph N/A   Clear
11:53 AM 71.1 °F - 44.1 °F 38% 30.14 in 10.0 mi SSE 9.2 mph - N/A   Clear
12:53 PM 73.0 °F - 45.0 °F 37% 30.13 in 10.0 mi SSE 9.2 mph - N/A   Clear
1:53 PM 75.0 °F - 45.0 °F 34% 30.09 in 10.0 mi SE 11.5 mph 18.4 mph N/A   Clear
2:53 PM 77.0 °F - 46.4 °F 34% 30.08 in 10.0 mi SE 10.4 mph - N/A   Clear
3:53 PM 77.0 °F - 46.0 °F 33% 30.04 in 10.0 mi South 10.4 mph - N/A   Clear
4:53 PM 77.0 °F - 46.9 °F 34% 30.03 in 10.0 mi South 9.2 mph 23.0 mph N/A   Clear
5:53 PM 73.9 °F - 46.9 °F 38% 30.03 in 10.0 mi South 6.9 mph - N/A   Clear
6:53 PM 69.1 °F - 48.9 °F 49% 30.03 in 10.0 mi South 6.9 mph - N/A   Clear
7:53 PM 64.9 °F - 48.9 °F 56% 30.04 in 10.0 mi South 5.8 mph - N/A   Clear
8:53 PM 64.0 °F - 48.9 °F 58% 30.04 in 10.0 mi SE 6.9 mph - N/A   Clear
9:53 PM 60.1 °F - 48.9 °F 67% 30.04 in 10.0 mi SSE 6.9 mph - N/A   Clear
10:53 PM 59.0 °F - 48.9 °F 69% 30.03 in 10.0 mi SSE 5.8 mph - N/A   Clear
11:53 PM 62.1 °F - 48.9 °F 62% 30.01 in 10.0 mi South 9.2 mph - N/A   Clear